Location: Akgöl Batakl???
(38.9482°N, 31.8837°E)
Time: 10:43:53
(UTC+00:00)

Cosmos 1464 Rocket - Pass Details

Date: 08 May 2026
Orbit: 952 x 1000 km, 82.9° (Epoch: 6 June)

Event Time Altitude Azimuth Distance (km) Brightness Sun altitude
Exits shadow 20:08:45 66° 68° (ENE) 1,036 4.0 -29.1°
Drops below altitude 10° 20:14:26 10° 12° (NNE) 2,694 6.9 -29.6°
Sets 20:16:57 0° 10° (N) 3,649 7.8 -29.8°
